GW0714 Weather Reports


Display with metric or nautical units.
time (UTC)temp
F
wind
direction
speed
MPH
gust
MPH
rain 1hr
in
rain 24hr
in
rain mn
in
humidity
%
barometer
mb
20260503032529 64 0 0.0 1.0 0.00 0.00 0.00 68 1011.0
20260503032032 64 0 0.0 1.0 0.00 0.00 0.00 68 1010.9
20260503031537 64 0 0.0 1.0 0.00 0.00 0.00 68 1010.9
20260503031028 64 0 0.0 1.0 0.00 0.00 0.00 68 1010.9
20260503030529 64 0 0.0 1.0 0.00 0.00 0.00 67 1010.8
20260503030039 65 0 0.0 1.0 0.00 0.00 0.00 66 1010.8
20260503025529 65 0 0.0 1.0 0.00 0.00 0.00 66 1010.8
20260503025029 66 0 0.0 1.0 0.00 0.00 0.00 65 1010.8
20260503024540 66 0 0.0 0.0 0.00 0.00 0.00 65 1010.8
20260503024029 66 0 0.0 0.0 0.00 0.00 0.00 65 1010.7
20260503023529 66 0 0.0 0.0 0.00 0.00 0.00 64 1010.7
20260503023041 66 0 0.0 0.0 0.00 0.00 0.00 63 1010.8
20260503022529 67 0 0.0 0.0 0.00 0.00 0.00 63 1010.7
20260503022032 67 0 0.0 2.0 0.00 0.00 0.00 63 1010.7
20260503021544 67 0 0.0 2.0 0.00 0.00 0.00 62 1010.7
20260503021030 68 324 0.0 2.0 0.00 0.00 0.00 60 1010.7
20260503020531 68 0 0.0 2.0 0.00 0.00 0.00 61 1010.8
20260503020048 68 0 0.0 2.0 0.00 0.00 0.00 61 1010.8
20260503015529 68 344 0.0 2.0 0.00 0.00 0.00 61 1010.7
20260503015028 68 0 0.0 2.0 0.00 0.00 0.00 61 1010.7
20260503014540 68 338 0.0 3.0 0.00 0.00 0.00 60 1010.7
20260503014031 68 0 0.0 3.0 0.00 0.00 0.00 60 1010.7
20260503013529 68 0 0.0 2.0 0.00 0.00 0.00 59 1010.7
20260503013041 69 0 0.0 2.0 0.00 0.00 0.00 59 1010.8
20260503012528 69 0 0.0 2.0 0.00 0.00 0.00 59 1010.8
20260503012029 69 345 0.0 4.0 0.00 0.00 0.00 58 1010.8
20260503011548 69 323 2.0 4.0 0.00 0.00 0.00 57 1010.8
20260503011029 69 345 1.0 4.0 0.00 0.00 0.00 57 1010.8
20260503010531 69 0 0.0 4.0 0.00 0.00 0.00 58 1010.8
20260503010040 69 334 1.0 4.0 0.00 0.00 0.00 57 1010.9
20260503005533 70 324 1.0 4.0 0.00 0.00 0.00 56 1010.9
20260503005029 70 343 2.0 5.0 0.00 0.00 0.00 56 1010.9
20260503004535 70 5 2.0 5.0 0.00 0.00 0.00 56 1010.9
20260503004030 70 360 1.0 4.0 0.00 0.00 0.00 56 1010.8
20260503003530 70 74 0.0 4.0 0.00 0.00 0.00 56 1010.9
20260503003043 70 0 1.0 4.0 0.00 0.00 0.00 56 1010.9
20260503002530 70 360 2.0 5.0 0.00 0.00 0.00 55 1010.9
20260503002031 70 311 2.0 5.0 0.00 0.00 0.00 57 1011.1
20260503001540 70 81 0.0 5.0 0.00 0.00 0.00 56 1010.9
20260503001034 71 351 1.0 5.0 0.00 0.00 0.00 55 1011.1
20260503000533 71 352 2.0 5.0 0.00 0.00 0.00 56 1010.9
20260503000057 71 31 2.0 4.0 0.00 0.00 0.00 55 1010.9
20260502235530 71 65 1.0 3.0 0.00 0.00 0.00 56 1011.1
20260502235028 71 148 0.0 3.0 0.00 0.00 0.00 55 1011.1
20260502234559 71 69 1.0 5.0 0.00 0.00 0.00 54 1011.0
20260502234029 72 108 1.0 5.0 0.00 0.00 0.00 53 1011.1
20260502233531 72 346 3.0 5.0 0.00 0.00 0.00 52 1011.2
20260502233039 72 31 1.0 8.0 0.00 0.00 0.00 52 1011.1
20260502232531 72 45 3.0 8.0 0.00 0.00 0.00 50 1011.2
20260502232031 72 62 1.0 6.0 0.00 0.00 0.00 51 1011.2
20260502231540 72 48 2.0 7.0 0.00 0.00 0.00 52 1011.1
20260502231029 71 0 1.0 7.0 0.00 0.00 0.00 54 1011.2
20260502230531 71 155 3.0 7.0 0.00 0.00 0.00 52 1011.3
20260502230044 71 113 1.0 6.0 0.00 0.00 0.00 54 1011.4
20260502225531 71 126 3.0 6.0 0.00 0.00 0.00 52 1011.5
20260502225031 72 123 2.0 8.0 0.00 0.00 0.00 49 1011.7
20260502224541 71 41 1.0 8.0 0.00 0.00 0.00 51 1011.7
20260502224030 71 149 2.0 8.0 0.00 0.00 0.00 48 1011.8
20260502223532 71 144 2.0 7.0 0.00 0.00 0.00 48 1011.9
20260502223039 72 94 3.0 7.0 0.00 0.00 0.00 49 1011.9
20260502222531 72 88 3.0 6.0 0.00 0.00 0.00 48 1012.0
20260502222033 71 323 1.0 6.0 0.00 0.00 0.00 49 1012.1
20260502221539 70 161 3.0 7.0 0.00 0.00 0.00 46 1012.2
20260502221032 70 117 1.0 9.0 0.00 0.00 0.00 49 1012.2
20260502220531 70 142 3.0 9.0 0.00 0.00 0.00 52 1012.3
20260502220057 71 154 2.0 7.0 0.00 0.00 0.00 47 1012.3
20260502215532 71 153 3.0 7.0 0.00 0.00 0.00 46 1012.3
20260502215033 72 130 1.0 7.0 0.00 0.00 0.00 48 1012.4
20260502214545 72 146 1.0 9.0 0.00 0.00 0.00 49 1012.4
20260502214031 73 150 2.0 9.0 0.00 0.00 0.00 46 1012.4
20260502213531 72 18 1.0 7.0 0.00 0.00 0.00 46 1012.5
20260502213042 72 157 3.0 7.0 0.00 0.00 0.00 43 1012.5
20260502212531 72 172 1.0 6.0 0.00 0.00 0.00 45 1012.5
20260502212031 71 124 2.0 6.0 0.00 0.00 0.00 46 1012.6
20260502211541 71 0 1.0 6.0 0.00 0.00 0.00 46 1012.6
20260502211030 70 131 2.0 6.0 0.00 0.00 0.00 46 1012.6
20260502210530 70 128 2.0 7.0 0.00 0.00 0.00 49 1012.7
20260502210038 70 155 2.0 7.0 0.00 0.00 0.00 46 1012.7
20260502205529 71 140 2.0 6.0 0.00 0.00 0.00 43 1012.8
20260502205030 71 263 1.0 5.0 0.00 0.00 0.00 46 1012.8
20260502204537 71 19 1.0 5.0 0.00 0.00 0.00 44 1012.9
20260502204029 71 347 3.0 5.0 0.00 0.00 0.00 45 1012.8
20260502203530 69 133 1.0 4.0 0.00 0.00 0.00 49 1012.9
20260502203036 69 0 0.0 4.0 0.00 0.00 0.00 45 1013.0
20260502202532 68 15 1.0 4.0 0.00 0.00 0.00 49 1013.0
20260502202031 68 132 0.0 2.0 0.00 0.00 0.00 48 1012.9
20260502201544 68 5 0.0 3.0 0.00 0.00 0.00 49 1013.0
20260502201030 67 0 0.0 4.0 0.00 0.00 0.00 51 1013.1
20260502200532 67 0 1.0 4.0 0.00 0.00 0.00 54 1013.1
20260502200054 67 222 1.0 5.0 0.00 0.00 0.00 49 1013.1
20260502195530 67 0 1.0 5.0 0.00 0.00 0.00 50 1013.1
20260502195031 67 61 1.0 4.0 0.00 0.00 0.00 53 1013.2
20260502194541 66 27 1.0 4.0 0.00 0.00 0.00 54 1013.2
20260502194028 66 128 0.0 4.0 0.00 0.00 0.00 59 1013.3
20260502193531 65 0 1.0 5.0 0.00 0.00 0.00 62 1013.3
20260502193042 65 5 1.0 5.0 0.00 0.00 0.00 61 1013.4
20260502192531 64 141 1.0 4.0 0.00 0.00 0.00 64 1013.5
20260502192031 64 151 1.0 4.0 0.00 0.00 0.00 64 1013.5
20260502191543 64 0 0.0 3.0 0.00 0.00 0.00 64 1013.4
20260502191034 63 146 1.0 4.0 0.00 0.00 0.00 67 1013.4
20260502190531 63 97 1.0 4.0 0.00 0.00 0.00 68 1013.4
20260502190045 63 154 1.0 4.0 0.00 0.00 0.00 67 1013.3
20260502185531 62 360 0.0 3.0 0.00 0.00 0.00 70 1013.3
20260502185031 62 146 1.0 4.0 0.00 0.00 0.00 70 1013.2
20260502184535 62 143 1.0 7.0 0.00 0.00 0.00 71 1013.3
20260502184031 62 167 2.0 7.0 0.00 0.00 0.00 70 1013.2
20260502183531 63 153 3.0 7.0 0.00 0.00 0.00 68 1013.3
20260502183040 63 146 3.0 7.0 0.00 0.00 0.00 69 1013.3
20260502182531 64 157 2.0 7.0 0.00 0.00 0.00 69 1013.3
20260502182032 65 145 2.0 7.0 0.00 0.00 0.00 67 1013.3
20260502181539 64 330 1.0 5.0 0.00 0.00 0.00 65 1013.4
20260502181031 64 0 0.0 5.0 0.00 0.00 0.00 72 1013.3
20260502180529 63 144 1.0 5.0 0.00 0.00 0.00 75 1013.4
20260502164030 68 325 2.0 4.0 0.00 0.00 0.00 63 1012.7
20260502163529 68 5 1.0 4.0 0.00 0.00 0.00 62 1012.8
20260502163049 68 333 2.0 4.0 0.00 0.00 0.00 62 1012.8
20260502162531 68 0 1.0 4.0 0.00 0.00 0.00 59 1012.8
20260502162033 68 334 0.0 3.0 0.00 0.00 0.00 60 1012.8
20260502161539 67 0 0.0 3.0 0.00 0.00 0.00 59 1012.8
20260502161030 67 0 0.0 3.0 0.00 0.00 0.00 60 1012.7
20260502160530 67 0 0.0 3.0 0.00 0.00 0.00 62 1012.8
20260502152031 62 0 0.0 2.0 0.00 0.00 0.00 69 1012.7
20260502151557 62 0 0.0 2.0 0.00 0.00 0.00 69 1012.7
20260502151032 61 0 0.0 1.0 0.00 0.00 0.00 70 1012.7
20260502150531 61 0 0.0 1.0 0.00 0.00 0.00 70 1012.7
20260502130530 58 265 0.0 2.0 0.00 0.00 0.00 70 1011.7
20260502123529 59 0 0.0 2.0 0.00 0.00 0.00 69 1011.5
20260502123043 59 0 0.0 2.0 0.00 0.00 0.00 69 1011.5
20260502122530 59 0 1.0 2.0 0.00 0.00 0.00 69 1011.4
20260502122033 59 260 1.0 3.0 0.00 0.00 0.00 69 1011.4
20260502121540 59 251 1.0 3.0 0.00 0.00 0.00 69 1011.4
20260502121031 59 246 1.0 3.0 0.00 0.00 0.00 69 1011.5
20260502120533 60 263 1.0 3.0 0.00 0.00 0.00 69 1011.5
20260502115530 60 277 0.0 2.0 0.00 0.00 0.00 68 1011.5
20260502115030 60 275 0.0 3.0 0.00 0.00 0.00 69 1011.4
20260502114539 60 283 0.0 3.0 0.00 0.00 0.00 69 1011.5
20260502114030 60 319 1.0 3.0 0.00 0.00 0.00 69 1011.5
20260502113531 60 272 1.0 3.0 0.00 0.00 0.00 69 1011.7
20260502113048 60 0 0.0 2.0 0.00 0.00 0.00 69 1011.8
20260502112529 60 0 0.0 2.0 0.00 0.00 0.00 69 1011.7
20260502112030 60 286 0.0 3.0 0.00 0.00 0.00 69 1011.8
20260502111547 60 304 1.0 3.0 0.00 0.00 0.00 68 1011.7
20260502111030 61 261 1.0 3.0 0.00 0.00 0.00 68 1011.8
20260502110531 61 322 1.0 3.0 0.00 0.00 0.00 68 1011.8
20260502110039 61 257 0.0 3.0 0.00 0.00 0.00 68 1011.7
20260502105533 61 236 0.0 3.0 0.00 0.00 0.00 68 1011.8
20260502105030 61 286 0.0 3.0 0.00 0.00 0.00 69 1011.8
20260502104540 61 284 1.0 3.0 0.00 0.00 0.00 69 1011.8
20260502104030 61 254 1.0 2.0 0.00 0.00 0.00 69 1011.8
20260502103530 61 273 1.0 2.0 0.00 0.00 0.00 69 1011.9
20260502103035 61 255 1.0 2.0 0.00 0.00 0.00 69 1011.9
20260502102529 61 263 0.0 3.0 0.00 0.00 0.00 69 1011.9
20260502102030 61 0 1.0 3.0 0.00 0.00 0.00 69 1011.9
20260502101537 61 289 0.0 3.0 0.00 0.00 0.00 70 1011.9
20260502101031 61 269 0.0 3.0 0.00 0.00 0.00 70 1011.9
20260502100531 61 0 1.0 3.0 0.00 0.00 0.00 70 1012.0
20260502091031 62 0 1.0 3.0 0.00 0.00 0.00 71 1012.3
20260502090530 62 250 1.0 3.0 0.00 0.00 0.00 71 1012.3
20260502090109 62 275 1.0 3.0 0.00 0.00 0.00 71 1012.5
20260502071033 63 0 0.0 2.0 0.00 0.00 0.00 74 1013.0
20260502070530 63 0 0.0 2.0 0.00 0.00 0.00 73 1013.0
20260502070055 63 0 0.0 2.0 0.00 0.00 0.00 73 1013.1
20260502065530 63 0 0.0 2.0 0.00 0.00 0.00 73 1013.1
20260502065028 64 218 0.0 2.0 0.00 0.00 0.00 74 1013.1
20260502064553 64 0 0.0 3.0 0.00 0.00 0.00 73 1013.1
20260502064030 64 256 0.0 3.0 0.00 0.00 0.00 73 1013.1
20260502063530 64 253 0.0 2.0 0.00 0.00 0.00 73 1013.1
20260502063042 64 0 0.0 2.0 0.00 0.00 0.00 72 1013.1
20260502062531 64 275 0.0 3.0 0.00 0.00 0.00 72 1013.1
20260502062031 64 286 0.0 3.0 0.00 0.00 0.00 72 1013.1
20260502061543 64 262 0.0 2.0 0.00 0.00 0.00 71 1013.1
20260502061030 64 279 0.0 2.0 0.00 0.00 0.00 71 1013.1
20260502060529 64 0 0.0 2.0 0.00 0.00 0.00 71 1013.1
20260502060038 65 0 0.0 2.0 0.00 0.00 0.00 71 1013.1
20260502055531 65 269 0.0 2.0 0.00 0.00 0.00 70 1013.1
20260502055031 65 0 0.0 0.0 0.00 0.00 0.00 70 1013.2
20260502054538 65 0 0.0 1.0 0.00 0.00 0.00 70 1013.1
20260502054030 65 0 0.0 1.0 0.00 0.00 0.00 70 1013.1
20260502053530 66 248 0.0 1.0 0.00 0.00 0.00 69 1013.2
20260502053038 66 258 0.0 1.0 0.00 0.00 0.00 69 1013.2
20260502052530 66 0 0.0 0.0 0.00 0.00 0.00 68 1013.3
20260502052030 66 0 0.0 0.0 0.00 0.00 0.00 68 1013.2
20260502051548 66 0 0.0 0.0 0.00 0.00 0.00 68 1013.2
20260502051030 66 0 0.0 0.0 0.00 0.00 0.00 67 1013.2
20260502050533 67 0 0.0 0.0 0.00 0.00 0.00 67 1013.2
20260502050042 67 0 0.0 0.0 0.00 0.00 0.00 67 1013.2
20260502045530 67 0 0.0 0.0 0.00 0.00 0.00 67 1013.1
20260502045030 67 0 0.0 0.0 0.00 0.00 0.00 66 1013.2
20260502044542 67 0 0.0 0.0 0.00 0.00 0.00 66 1013.2
20260502044027 67 0 0.0 0.0 0.00 0.00 0.00 65 1013.2
20260502043529 68 0 0.0 0.0 0.00 0.00 0.00 65 1013.1
20260502043039 68 0 0.0 1.0 0.00 0.00 0.00 64 1012.9
20260502042531 68 0 0.0 1.0 0.00 0.00 0.00 64 1012.8
20260502042032 68 0 0.0 1.0 0.00 0.00 0.00 63 1012.9
20260502041553 69 294 0.0 1.0 0.00 0.00 0.00 62 1012.9
20260502041029 69 0 0.0 3.0 0.00 0.00 0.00 62 1012.8
20260502040530 69 0 0.0 3.0 0.00 0.00 0.00 62 1012.8
20260502040048 69 331 2.0 3.0 0.00 0.00 0.00 62 1012.7
20260502035530 70 347 0.0 2.0 0.00 0.00 0.00 60 1012.7
20260502035027 70 347 0.0 2.0 0.00 0.00 0.00 60 1012.6
20260502034533 70 0 0.0 2.0 0.00 0.00 0.00 59 1012.5
20260502034027 70 0 0.0 2.0 0.00 0.00 0.00 58 1012.5
20260502033530 70 0 0.0 2.0 0.00 0.00 0.00 57 1012.5
20260502033042 71 0 0.0 2.0 0.00 0.00 0.00 57 1012.4